Year,Month,Day,Hour,Minute,Value (Times are PST for temperature in C)
2014,09,14,00,00,17.90
2014,09,14,00,01,17.90
2014,09,14,00,02,18.00
2014,09,14,00,03,18.00
2014,09,14,00,04,18.00
2014,09,14,00,05,18.00
2014,09,14,00,06,18.00
2014,09,14,00,07,18.00
2014,09,14,00,08,18.00
2014,09,14,00,09,17.90
2014,09,14,00,10,17.90
2014,09,14,00,11,17.90
2014,09,14,00,12,17.80
2014,09,14,00,13,17.80
2014,09,14,00,14,17.70
2014,09,14,00,15,17.70
2014,09,14,00,16,17.60
2014,09,14,00,17,17.50
2014,09,14,00,18,17.50
2014,09,14,00,19,17.50
2014,09,14,00,20,17.50
2014,09,14,00,21,17.40
2014,09,14,00,22,17.40
2014,09,14,00,23,17.40
2014,09,14,00,24,17.40
2014,09,14,00,25,17.30
2014,09,14,00,26,17.20
2014,09,14,00,27,17.20
2014,09,14,00,28,17.10
2014,09,14,00,29,17.10
2014,09,14,00,30,17.10
2014,09,14,00,31,17.10
2014,09,14,00,32,17.20
2014,09,14,00,33,17.20
2014,09,14,00,34,17.30
2014,09,14,00,35,17.30
2014,09,14,00,36,17.30
2014,09,14,00,37,17.30
2014,09,14,00,38,17.40
2014,09,14,00,39,17.40
2014,09,14,00,40,17.50
2014,09,14,00,41,17.50
2014,09,14,00,42,17.60
2014,09,14,00,43,17.60
2014,09,14,00,44,17.60
2014,09,14,00,45,17.60
2014,09,14,00,46,17.60
2014,09,14,00,47,17.60
2014,09,14,00,48,17.60
2014,09,14,00,49,17.60
2014,09,14,00,50,17.60
2014,09,14,00,51,17.60
2014,09,14,00,52,17.60
2014,09,14,00,53,17.60
2014,09,14,00,54,17.60
2014,09,14,00,55,17.60
2014,09,14,00,56,17.50
2014,09,14,00,57,17.40
2014,09,14,00,58,17.40
2014,09,14,00,59,17.30
2014,09,14,01,00,17.30
2014,09,14,01,01,17.30
2014,09,14,01,02,17.30
2014,09,14,01,03,17.30
2014,09,14,01,04,17.30
2014,09,14,01,05,17.30
2014,09,14,01,06,17.20
2014,09,14,01,07,17.20
2014,09,14,01,08,17.20
2014,09,14,01,09,17.20
2014,09,14,01,10,17.20
2014,09,14,01,11,17.10
2014,09,14,01,12,17.10
2014,09,14,01,13,17.10
2014,09,14,01,14,17.10
2014,09,14,01,15,17.10
2014,09,14,01,16,17.00
2014,09,14,01,17,17.00
2014,09,14,01,18,17.00
2014,09,14,01,19,17.00
2014,09,14,01,20,17.00
2014,09,14,01,21,17.00
2014,09,14,01,22,17.00
2014,09,14,01,23,16.90
2014,09,14,01,24,16.90
2014,09,14,01,25,16.90
2014,09,14,01,26,16.80
2014,09,14,01,27,16.80
2014,09,14,01,28,16.70
2014,09,14,01,29,16.70
2014,09,14,01,30,16.70
2014,09,14,01,31,16.60
2014,09,14,01,32,16.50
2014,09,14,01,33,16.50
2014,09,14,01,34,16.40
2014,09,14,01,35,16.30
2014,09,14,01,36,16.30
2014,09,14,01,37,16.20
2014,09,14,01,38,16.20
2014,09,14,01,39,16.20
2014,09,14,01,40,16.10
2014,09,14,01,41,16.00
2014,09,14,01,42,16.00
2014,09,14,01,43,15.90
2014,09,14,01,44,15.90
2014,09,14,01,45,15.80
2014,09,14,01,46,15.80
2014,09,14,01,47,15.80
2014,09,14,01,48,15.70
2014,09,14,01,49,15.70
2014,09,14,01,50,15.70
2014,09,14,01,51,15.70
2014,09,14,01,52,15.70
2014,09,14,01,53,15.70
2014,09,14,01,54,15.70
2014,09,14,01,55,15.80
2014,09,14,01,56,15.80
2014,09,14,01,57,15.80
2014,09,14,01,58,15.80
2014,09,14,01,59,15.90
2014,09,14,02,00,15.90
2014,09,14,02,01,15.80
2014,09,14,02,02,15.80
2014,09,14,02,03,15.80
2014,09,14,02,04,15.80
2014,09,14,02,05,15.80
2014,09,14,02,06,15.70
2014,09,14,02,07,15.60
2014,09,14,02,08,15.60
2014,09,14,02,09,15.50
2014,09,14,02,10,15.40
2014,09,14,02,11,15.40
2014,09,14,02,12,15.40
2014,09,14,02,13,15.40
2014,09,14,02,14,15.40
2014,09,14,02,15,15.40
2014,09,14,02,16,15.40
2014,09,14,02,17,15.50
2014,09,14,02,18,15.50
2014,09,14,02,19,15.50
2014,09,14,02,20,15.50
2014,09,14,02,21,15.50
2014,09,14,02,22,15.50
2014,09,14,02,23,15.50
2014,09,14,02,24,15.60
2014,09,14,02,25,15.60
2014,09,14,02,26,15.60
2014,09,14,02,27,15.60
2014,09,14,02,28,15.60
2014,09,14,02,29,15.60
2014,09,14,02,30,15.60
2014,09,14,02,31,15.60
2014,09,14,02,32,15.60
2014,09,14,02,33,15.70
2014,09,14,02,34,15.70
2014,09,14,02,35,15.60
2014,09,14,02,36,15.70
2014,09,14,02,37,15.70
2014,09,14,02,38,15.70
2014,09,14,02,39,15.70
2014,09,14,02,40,15.70
2014,09,14,02,41,15.60
2014,09,14,02,42,15.60
2014,09,14,02,43,15.60
2014,09,14,02,44,15.50
2014,09,14,02,45,15.50
2014,09,14,02,46,15.50
2014,09,14,02,47,15.50
2014,09,14,02,48,15.50
2014,09,14,02,49,15.40
2014,09,14,02,50,15.40
2014,09,14,02,51,15.40
2014,09,14,02,52,15.30
2014,09,14,02,53,15.30
2014,09,14,02,54,15.20
2014,09,14,02,55,15.20
2014,09,14,02,56,15.10
2014,09,14,02,57,15.00
2014,09,14,02,58,15.00
2014,09,14,02,59,14.90
2014,09,14,03,00,14.90
2014,09,14,03,01,14.90
2014,09,14,03,02,14.90
2014,09,14,03,03,14.80
2014,09,14,03,04,14.80
2014,09,14,03,05,14.80
2014,09,14,03,06,14.90
2014,09,14,03,07,14.90
2014,09,14,03,08,14.90
2014,09,14,03,09,15.00
2014,09,14,03,10,15.10
2014,09,14,03,11,15.10
2014,09,14,03,12,15.00
2014,09,14,03,13,15.00
2014,09,14,03,14,15.00
2014,09,14,03,15,14.90
2014,09,14,03,16,14.90
2014,09,14,03,17,15.00
2014,09,14,03,18,15.00
2014,09,14,03,19,15.00
2014,09,14,03,20,15.00
2014,09,14,03,21,15.00
2014,09,14,03,22,15.00
2014,09,14,03,23,15.00
2014,09,14,03,24,15.00
2014,09,14,03,25,15.00
2014,09,14,03,26,14.90
2014,09,14,03,27,14.80
2014,09,14,03,28,14.80
2014,09,14,03,29,14.70
2014,09,14,03,30,14.70
2014,09,14,03,31,14.60
2014,09,14,03,32,14.60
2014,09,14,03,33,14.60
2014,09,14,03,34,14.50
2014,09,14,03,35,14.50
2014,09,14,03,36,14.40
2014,09,14,03,37,14.40
2014,09,14,03,38,14.40
2014,09,14,03,39,14.30
2014,09,14,03,40,14.30
2014,09,14,03,41,14.30
2014,09,14,03,42,14.30
2014,09,14,03,43,14.20
2014,09,14,03,44,14.20
2014,09,14,03,45,14.20
2014,09,14,03,46,14.20
2014,09,14,03,47,14.10
2014,09,14,03,48,14.10
2014,09,14,03,49,14.10
2014,09,14,03,50,14.10
2014,09,14,03,51,14.00
2014,09,14,03,52,14.00
2014,09,14,03,53,14.10
2014,09,14,03,54,14.10
2014,09,14,03,55,14.10
2014,09,14,03,56,14.00
2014,09,14,03,57,14.00
2014,09,14,03,58,13.90
2014,09,14,03,59,13.90
2014,09,14,04,00,13.90
2014,09,14,04,01,13.90
2014,09,14,04,02,13.90
2014,09,14,04,03,13.90
2014,09,14,04,04,13.90
2014,09,14,04,05,13.90
2014,09,14,04,06,13.80
2014,09,14,04,07,13.80
2014,09,14,04,08,13.80
2014,09,14,04,09,13.80
2014,09,14,04,10,13.80
2014,09,14,04,11,13.80
2014,09,14,04,12,13.70
2014,09,14,04,13,13.70
2014,09,14,04,14,13.70
2014,09,14,04,15,13.70
2014,09,14,04,16,13.70
2014,09,14,04,17,13.70
2014,09,14,04,18,13.70
2014,09,14,04,19,13.70
2014,09,14,04,20,13.70
2014,09,14,04,21,13.70
2014,09,14,04,22,13.70
2014,09,14,04,23,13.70
2014,09,14,04,24,13.70
2014,09,14,04,25,13.70
2014,09,14,04,26,13.70
2014,09,14,04,27,13.60
2014,09,14,04,28,13.60
2014,09,14,04,29,13.60
2014,09,14,04,30,13.60
2014,09,14,04,31,13.60
2014,09,14,04,32,13.60
2014,09,14,04,33,13.60
2014,09,14,04,34,13.60
2014,09,14,04,35,13.60
2014,09,14,04,36,13.70
2014,09,14,04,37,13.70
2014,09,14,04,38,13.70
2014,09,14,04,39,13.70
2014,09,14,04,40,13.80
2014,09,14,04,41,13.80
2014,09,14,04,42,13.80
2014,09,14,04,43,13.80
2014,09,14,04,44,13.80
2014,09,14,04,45,13.80
2014,09,14,04,46,13.80
2014,09,14,04,47,13.80
2014,09,14,04,48,13.80
2014,09,14,04,49,13.70
2014,09,14,04,50,13.70
2014,09,14,04,51,13.70
2014,09,14,04,52,13.70
2014,09,14,04,53,13.70
2014,09,14,04,54,13.70
2014,09,14,04,55,13.60
2014,09,14,04,56,13.60
2014,09,14,04,57,13.60
2014,09,14,04,58,13.60
2014,09,14,04,59,13.50
2014,09,14,05,00,13.50
2014,09,14,05,01,13.50
2014,09,14,05,02,13.40
2014,09,14,05,03,13.40
2014,09,14,05,04,13.40
2014,09,14,05,05,13.40
2014,09,14,05,06,13.40
2014,09,14,05,07,13.50
2014,09,14,05,08,13.50
2014,09,14,05,09,13.50
2014,09,14,05,10,13.60
2014,09,14,05,11,13.60
2014,09,14,05,12,13.60
2014,09,14,05,13,13.60
2014,09,14,05,14,13.60
2014,09,14,05,15,13.60
2014,09,14,05,16,13.60
2014,09,14,05,17,13.60
2014,09,14,05,18,13.60
2014,09,14,05,19,13.60
2014,09,14,05,20,13.60
2014,09,14,05,21,13.60
2014,09,14,05,22,13.50
2014,09,14,05,23,13.50
2014,09,14,05,24,13.50
2014,09,14,05,25,13.50
2014,09,14,05,26,13.50
2014,09,14,05,27,13.50
2014,09,14,05,28,13.40
2014,09,14,05,29,13.40
2014,09,14,05,30,13.40
2014,09,14,05,31,13.40
2014,09,14,05,32,13.40
2014,09,14,05,33,13.30
2014,09,14,05,34,13.30
2014,09,14,05,35,13.30
2014,09,14,05,36,13.30
2014,09,14,05,37,13.30
2014,09,14,05,38,13.30
2014,09,14,05,39,13.30
2014,09,14,05,40,13.20
2014,09,14,05,41,13.20
2014,09,14,05,42,13.20
2014,09,14,05,43,13.20
2014,09,14,05,44,13.20
2014,09,14,05,45,13.10
2014,09,14,05,46,13.10
2014,09,14,05,47,13.10
2014,09,14,05,48,13.10
2014,09,14,05,49,13.00
2014,09,14,05,50,13.00
2014,09,14,05,51,13.00
2014,09,14,05,52,12.90
2014,09,14,05,53,12.90
2014,09,14,05,54,12.90
2014,09,14,05,55,12.90
2014,09,14,05,56,12.80
2014,09,14,05,57,12.80
2014,09,14,05,58,12.80
2014,09,14,05,59,12.80
2014,09,14,06,00,12.80
2014,09,14,06,01,12.80
2014,09,14,06,02,12.80
2014,09,14,06,03,12.80
2014,09,14,06,04,12.80
2014,09,14,06,05,12.80
2014,09,14,06,06,12.80
2014,09,14,06,07,12.70
2014,09,14,06,08,12.70
2014,09,14,06,09,12.70
2014,09,14,06,10,12.70
2014,09,14,06,11,12.70
2014,09,14,06,12,12.70
2014,09,14,06,13,12.70
2014,09,14,06,14,12.70
2014,09,14,06,15,12.60
2014,09,14,06,16,12.60
2014,09,14,06,17,12.60
2014,09,14,06,18,12.60
2014,09,14,06,19,12.60
2014,09,14,06,20,12.60
2014,09,14,06,21,12.60
2014,09,14,06,22,12.60
2014,09,14,06,23,12.60
2014,09,14,06,24,12.60
2014,09,14,06,25,12.70
2014,09,14,06,26,12.70
2014,09,14,06,27,12.70
2014,09,14,06,28,12.80
2014,09,14,06,29,12.80
2014,09,14,06,30,12.80
2014,09,14,06,31,12.90
2014,09,14,06,32,12.90
2014,09,14,06,33,12.90
2014,09,14,06,34,13.00
2014,09,14,06,35,13.10
2014,09,14,06,36,13.20
2014,09,14,06,37,13.20
2014,09,14,06,38,13.30
2014,09,14,06,39,13.30
2014,09,14,06,40,13.30
2014,09,14,06,41,13.30
2014,09,14,06,42,13.30
2014,09,14,06,43,13.30
2014,09,14,06,44,13.30
2014,09,14,06,45,13.20
2014,09,14,06,46,13.20
2014,09,14,06,47,13.10
2014,09,14,06,48,13.10
2014,09,14,06,49,13.00
2014,09,14,06,50,12.90
2014,09,14,06,51,12.90
2014,09,14,06,52,12.90
2014,09,14,06,53,12.80
2014,09,14,06,54,12.80
2014,09,14,06,55,12.70
2014,09,14,06,56,12.70
2014,09,14,06,57,12.60
2014,09,14,06,58,12.60
2014,09,14,06,59,12.60
2014,09,14,07,00,12.50
2014,09,14,07,01,12.50
2014,09,14,07,02,12.40
2014,09,14,07,03,12.40
2014,09,14,07,04,12.40
2014,09,14,07,05,12.30
2014,09,14,07,06,12.30
2014,09,14,07,07,12.30
2014,09,14,07,08,12.30
2014,09,14,07,09,12.20
2014,09,14,07,10,12.20
2014,09,14,07,11,12.20
2014,09,14,07,12,12.20
2014,09,14,07,13,12.20
2014,09,14,07,14,12.10
2014,09,14,07,15,12.10
2014,09,14,07,16,12.10
2014,09,14,07,17,12.10
2014,09,14,07,18,12.10
2014,09,14,07,19,12.10
2014,09,14,07,20,12.10
2014,09,14,07,21,12.10
2014,09,14,07,22,12.10
2014,09,14,07,23,12.10
2014,09,14,07,24,12.10
2014,09,14,07,25,12.10
2014,09,14,07,26,12.10
2014,09,14,07,27,12.10
2014,09,14,07,28,12.10
2014,09,14,07,29,12.20
2014,09,14,07,30,12.20
2014,09,14,07,31,12.30
2014,09,14,07,32,12.40
2014,09,14,07,33,12.40
2014,09,14,07,34,12.40
2014,09,14,07,35,12.50
2014,09,14,07,36,12.50
2014,09,14,07,37,12.50
2014,09,14,07,38,12.60
2014,09,14,07,39,12.60
2014,09,14,07,40,12.50
2014,09,14,07,41,12.50
2014,09,14,07,42,12.50
2014,09,14,07,43,12.50
2014,09,14,07,44,12.50
2014,09,14,07,45,12.50
2014,09,14,07,46,12.50
2014,09,14,07,47,12.40
2014,09,14,07,48,12.40
2014,09,14,07,49,12.40
2014,09,14,07,50,12.40
2014,09,14,07,51,12.40
2014,09,14,07,52,12.50
2014,09,14,07,53,12.50
2014,09,14,07,54,12.60
2014,09,14,07,55,12.60
2014,09,14,07,56,12.60
2014,09,14,07,57,12.70
2014,09,14,07,58,12.70
2014,09,14,07,59,12.80
2014,09,14,08,00,12.80
2014,09,14,08,01,12.90
2014,09,14,08,02,12.90
2014,09,14,08,03,13.00
2014,09,14,08,04,13.00
2014,09,14,08,05,13.10
2014,09,14,08,06,13.20
2014,09,14,08,07,13.30
2014,09,14,08,08,13.40
2014,09,14,08,09,13.40
2014,09,14,08,10,13.50
2014,09,14,08,11,13.60
2014,09,14,08,12,13.60
2014,09,14,08,13,13.70
2014,09,14,08,14,13.80
2014,09,14,08,15,13.80
2014,09,14,08,16,13.90
2014,09,14,08,17,13.90
2014,09,14,08,18,14.00
2014,09,14,08,19,14.10
2014,09,14,08,20,14.10
2014,09,14,08,21,14.20
2014,09,14,08,22,14.30
2014,09,14,08,23,14.30
2014,09,14,08,24,14.40
2014,09,14,08,25,14.40
2014,09,14,08,26,14.40
2014,09,14,08,27,14.50
2014,09,14,08,28,14.50
2014,09,14,08,29,14.60
2014,09,14,08,30,14.60
2014,09,14,08,31,14.60
2014,09,14,08,32,14.60
2014,09,14,08,33,14.60
2014,09,14,08,34,14.60
2014,09,14,08,35,14.60
2014,09,14,08,36,14.60
2014,09,14,08,37,14.60
2014,09,14,08,38,14.60
2014,09,14,08,39,14.60
2014,09,14,08,40,14.70
2014,09,14,08,41,14.70
2014,09,14,08,42,14.70
2014,09,14,08,43,14.70
2014,09,14,08,44,14.80
2014,09,14,08,45,14.80
2014,09,14,08,46,14.90
2014,09,14,08,47,14.90
2014,09,14,08,48,15.00
2014,09,14,08,49,15.00
2014,09,14,08,50,15.00
2014,09,14,08,51,15.00
2014,09,14,08,52,15.10
2014,09,14,08,53,15.10
2014,09,14,08,54,15.10
2014,09,14,08,55,15.10
2014,09,14,08,56,15.20
2014,09,14,08,57,15.20
2014,09,14,08,58,15.20
2014,09,14,08,59,15.30
2014,09,14,09,00,15.30
2014,09,14,09,01,15.30
2014,09,14,09,02,15.40
2014,09,14,09,03,15.50
2014,09,14,09,04,15.60
2014,09,14,09,05,15.60
2014,09,14,09,06,15.60
2014,09,14,09,07,15.70
2014,09,14,09,08,15.80
2014,09,14,09,09,15.80
2014,09,14,09,10,15.90
2014,09,14,09,11,15.90
2014,09,14,09,12,16.00
2014,09,14,09,13,16.10
2014,09,14,09,14,16.10
2014,09,14,09,15,16.20
2014,09,14,09,16,16.30
2014,09,14,09,17,16.30
2014,09,14,09,18,16.40
2014,09,14,09,19,16.50
2014,09,14,09,20,16.60
2014,09,14,09,21,16.70
2014,09,14,09,22,16.80
2014,09,14,09,23,16.80
2014,09,14,09,24,16.90
2014,09,14,09,25,16.90
2014,09,14,09,26,17.00
2014,09,14,09,27,17.10
2014,09,14,09,28,17.10
2014,09,14,09,29,17.10
2014,09,14,09,30,17.20
2014,09,14,09,31,17.20
2014,09,14,09,32,17.20
2014,09,14,09,33,17.20
2014,09,14,09,34,17.30
2014,09,14,09,35,17.30
2014,09,14,09,36,17.30
2014,09,14,09,37,17.40
2014,09,14,09,38,17.40
2014,09,14,09,39,17.50
2014,09,14,09,40,17.50
2014,09,14,09,41,17.60
2014,09,14,09,42,17.60
2014,09,14,09,43,17.60
2014,09,14,09,44,17.70
2014,09,14,09,45,17.70
2014,09,14,09,46,17.80
2014,09,14,09,47,17.80
2014,09,14,09,48,17.80
2014,09,14,09,49,17.80
2014,09,14,09,50,17.80
2014,09,14,09,51,17.80
2014,09,14,09,52,17.80
2014,09,14,09,53,17.80
2014,09,14,09,54,17.80
2014,09,14,09,55,17.80
2014,09,14,09,56,17.90
2014,09,14,09,57,17.90
2014,09,14,09,58,17.90
2014,09,14,09,59,18.00
2014,09,14,10,00,18.00
2014,09,14,10,01,18.10
2014,09,14,10,02,18.10
2014,09,14,10,03,18.10
2014,09,14,10,04,18.10
2014,09,14,10,05,18.20
2014,09,14,10,06,18.20
2014,09,14,10,07,18.30
2014,09,14,10,08,18.30
2014,09,14,10,09,18.30
2014,09,14,10,10,18.40
2014,09,14,10,11,18.40
2014,09,14,10,12,18.50
2014,09,14,10,13,18.50
2014,09,14,10,14,18.60
2014,09,14,10,15,18.60
2014,09,14,10,16,18.60
2014,09,14,10,17,18.70
2014,09,14,10,18,18.70
2014,09,14,10,19,18.70
2014,09,14,10,20,18.80
2014,09,14,10,21,18.80
2014,09,14,10,22,18.90
2014,09,14,10,23,18.90
2014,09,14,10,24,19.00
2014,09,14,10,25,19.00
2014,09,14,10,26,19.10
2014,09,14,10,27,19.10
2014,09,14,10,28,19.20
2014,09,14,10,29,19.20
2014,09,14,10,30,19.20
2014,09,14,10,31,19.20
2014,09,14,10,32,19.20
2014,09,14,10,33,19.30
2014,09,14,10,34,19.30
2014,09,14,10,35,19.30
2014,09,14,10,36,19.30
2014,09,14,10,37,19.30
2014,09,14,10,38,19.30
2014,09,14,10,39,19.30
2014,09,14,10,40,19.30
2014,09,14,10,41,19.40
2014,09,14,10,42,19.40
2014,09,14,10,43,19.40
2014,09,14,10,44,19.40
2014,09,14,10,45,19.40
2014,09,14,10,46,19.40
2014,09,14,10,47,19.40
2014,09,14,10,48,19.40
2014,09,14,10,49,19.40
2014,09,14,10,50,19.30
2014,09,14,10,51,19.20
2014,09,14,10,52,19.20
2014,09,14,10,53,19.20
2014,09,14,10,54,19.10
2014,09,14,10,55,19.10
2014,09,14,10,56,19.10
2014,09,14,10,57,19.10
2014,09,14,10,58,19.20
2014,09,14,10,59,19.20
2014,09,14,11,00,19.20
2014,09,14,11,01,19.20
2014,09,14,11,02,19.30
2014,09,14,11,03,19.30
2014,09,14,11,04,19.40
2014,09,14,11,05,19.40
2014,09,14,11,06,19.50
2014,09,14,11,07,19.60
2014,09,14,11,08,19.60
2014,09,14,11,09,19.70
2014,09,14,11,10,19.80
2014,09,14,11,11,19.80
2014,09,14,11,12,19.90
2014,09,14,11,13,19.90
2014,09,14,11,14,20.00
2014,09,14,11,15,20.10
2014,09,14,11,16,20.10
2014,09,14,11,17,20.10
2014,09,14,11,18,20.10
2014,09,14,11,19,20.20
2014,09,14,11,20,20.30
2014,09,14,11,21,20.30
2014,09,14,11,22,20.40
2014,09,14,11,23,20.40
2014,09,14,11,24,20.50
2014,09,14,11,25,20.50
2014,09,14,11,26,20.50
2014,09,14,11,27,20.50
2014,09,14,11,28,20.50
2014,09,14,11,29,20.50
2014,09,14,11,30,20.50
2014,09,14,11,31,20.60
2014,09,14,11,32,20.60
2014,09,14,11,33,20.60
2014,09,14,11,34,20.60
2014,09,14,11,35,20.70
2014,09,14,11,36,20.70
2014,09,14,11,37,20.70
2014,09,14,11,38,20.70
2014,09,14,11,39,20.70
2014,09,14,11,40,20.80
2014,09,14,11,41,20.80
2014,09,14,11,42,20.90
2014,09,14,11,43,20.90
2014,09,14,11,44,20.90
2014,09,14,11,45,21.00
2014,09,14,11,46,21.00
2014,09,14,11,47,21.00
2014,09,14,11,48,21.10
2014,09,14,11,49,21.10
2014,09,14,11,50,21.10
2014,09,14,11,51,21.20
2014,09,14,11,52,21.20
2014,09,14,11,53,21.20
2014,09,14,11,54,21.20
2014,09,14,11,55,21.30
2014,09,14,11,56,21.20
2014,09,14,11,57,21.10
2014,09,14,11,58,21.10
2014,09,14,11,59,21.00
2014,09,14,12,00,20.90
2014,09,14,12,01,20.90
2014,09,14,12,02,21.00
2014,09,14,12,03,21.00
2014,09,14,12,04,21.10
2014,09,14,12,05,21.10
2014,09,14,12,06,21.10
2014,09,14,12,07,21.10
2014,09,14,12,08,21.10
2014,09,14,12,09,21.10
2014,09,14,12,10,21.10
2014,09,14,12,11,21.20
2014,09,14,12,12,21.20
2014,09,14,12,13,21.30
2014,09,14,12,14,21.30
2014,09,14,12,15,21.30
2014,09,14,12,16,21.30
2014,09,14,12,17,21.40
2014,09,14,12,18,21.40
2014,09,14,12,19,21.40
2014,09,14,12,20,21.50
2014,09,14,12,21,21.50
2014,09,14,12,22,21.60
2014,09,14,12,23,21.60
2014,09,14,12,24,21.60
2014,09,14,12,25,21.70
2014,09,14,12,26,21.70
2014,09,14,12,27,21.80
2014,09,14,12,28,21.90
2014,09,14,12,29,22.00
2014,09,14,12,30,22.10
2014,09,14,12,31,22.10
2014,09,14,12,32,22.10
2014,09,14,12,33,22.10
2014,09,14,12,34,22.10
2014,09,14,12,35,22.10
2014,09,14,12,36,22.10
2014,09,14,12,37,22.10
2014,09,14,12,38,22.00
2014,09,14,12,39,22.00
2014,09,14,12,40,22.00
2014,09,14,12,41,22.00
2014,09,14,12,42,22.10
2014,09,14,12,43,22.10
2014,09,14,12,44,22.10
2014,09,14,12,45,22.10
2014,09,14,12,46,22.10
2014,09,14,12,47,22.00
2014,09,14,12,48,22.00
2014,09,14,12,49,21.90
2014,09,14,12,50,21.90
2014,09,14,12,51,21.90
2014,09,14,12,52,21.90
2014,09,14,12,53,21.90
2014,09,14,12,54,21.90
2014,09,14,12,55,22.00
2014,09,14,12,56,22.00
2014,09,14,12,57,22.00
2014,09,14,12,58,22.00
2014,09,14,12,59,22.10
2014,09,14,13,00,22.10
2014,09,14,13,01,22.10
2014,09,14,13,02,22.20
2014,09,14,13,03,22.20
2014,09,14,13,04,22.20
2014,09,14,13,05,22.20
2014,09,14,13,06,22.20
2014,09,14,13,07,22.20
2014,09,14,13,08,22.20
2014,09,14,13,09,22.20
2014,09,14,13,10,22.20
2014,09,14,13,11,22.20
2014,09,14,13,12,22.20
2014,09,14,13,13,22.20
2014,09,14,13,14,22.20
2014,09,14,13,15,22.20
2014,09,14,13,16,22.20
2014,09,14,13,17,22.20
2014,09,14,13,18,22.30
2014,09,14,13,19,22.30
2014,09,14,13,20,22.40
2014,09,14,13,21,22.40
2014,09,14,13,22,22.50
2014,09,14,13,23,22.60
2014,09,14,13,24,22.70
2014,09,14,13,25,22.80
2014,09,14,13,26,23.00
2014,09,14,13,27,23.00
2014,09,14,13,28,23.10
2014,09,14,13,29,23.00
2014,09,14,13,30,23.00
2014,09,14,13,31,23.00
2014,09,14,13,32,23.00
2014,09,14,13,33,23.00
2014,09,14,13,34,23.00
2014,09,14,13,35,23.10
2014,09,14,13,36,23.10
2014,09,14,13,37,23.20
2014,09,14,13,38,23.20
2014,09,14,13,39,23.30
2014,09,14,13,40,23.30
2014,09,14,13,41,23.40
2014,09,14,13,42,23.40
2014,09,14,13,43,23.40
2014,09,14,13,44,23.40
2014,09,14,13,45,23.40
2014,09,14,13,46,23.40
2014,09,14,13,47,23.40
2014,09,14,13,48,23.40
2014,09,14,13,49,23.40
2014,09,14,13,50,23.40
2014,09,14,13,51,23.50
2014,09,14,13,52,23.50
2014,09,14,13,53,23.60
2014,09,14,13,54,23.60
2014,09,14,13,55,23.60
2014,09,14,13,56,23.70
2014,09,14,13,57,23.70
2014,09,14,13,58,23.70
2014,09,14,13,59,23.70
2014,09,14,14,00,23.80
2014,09,14,14,01,23.70
2014,09,14,14,02,23.70
2014,09,14,14,03,23.70
2014,09,14,14,04,23.70
2014,09,14,14,05,23.70
2014,09,14,14,06,23.70
2014,09,14,14,07,23.70
2014,09,14,14,08,23.70
2014,09,14,14,09,23.70
2014,09,14,14,10,23.70
2014,09,14,14,11,23.70
2014,09,14,14,12,23.80
2014,09,14,14,13,23.80
2014,09,14,14,14,23.80
2014,09,14,14,15,23.80
2014,09,14,14,16,23.80
2014,09,14,14,17,23.70
2014,09,14,14,18,23.80
2014,09,14,14,19,23.80
2014,09,14,14,20,23.80
2014,09,14,14,21,23.80
2014,09,14,14,22,23.80
2014,09,14,14,23,23.80
2014,09,14,14,24,23.70
2014,09,14,14,25,23.70
2014,09,14,14,26,23.80
2014,09,14,14,27,23.80
2014,09,14,14,28,23.80
2014,09,14,14,29,23.90
2014,09,14,14,30,23.90
2014,09,14,14,31,24.00
2014,09,14,14,32,24.10
2014,09,14,14,33,24.10
2014,09,14,14,34,24.10
2014,09,14,14,35,24.10
2014,09,14,14,36,24.10
2014,09,14,14,37,24.10
2014,09,14,14,38,24.10
2014,09,14,14,39,24.20
2014,09,14,14,40,24.20
2014,09,14,14,41,24.20
2014,09,14,14,42,24.20
2014,09,14,14,43,24.20
2014,09,14,14,44,24.20
2014,09,14,14,45,24.20
2014,09,14,14,46,24.20
2014,09,14,14,47,24.20
2014,09,14,14,48,24.20
2014,09,14,14,49,24.20
2014,09,14,14,50,24.20
2014,09,14,14,51,24.20
2014,09,14,14,52,24.20
2014,09,14,14,53,24.20
2014,09,14,14,54,24.20
2014,09,14,14,55,24.20
2014,09,14,14,56,24.20
2014,09,14,14,57,24.30
2014,09,14,14,58,24.30
2014,09,14,14,59,24.30
2014,09,14,15,00,24.40
2014,09,14,15,01,24.50
2014,09,14,15,02,24.60
2014,09,14,15,03,24.70
2014,09,14,15,04,24.80
2014,09,14,15,05,24.90
2014,09,14,15,06,25.00
2014,09,14,15,07,25.00
2014,09,14,15,08,25.10
2014,09,14,15,09,25.10
2014,09,14,15,10,25.10
2014,09,14,15,11,25.20
2014,09,14,15,12,25.20
2014,09,14,15,13,25.20
2014,09,14,15,14,25.20
2014,09,14,15,15,25.20
2014,09,14,15,16,25.20
2014,09,14,15,17,25.30
2014,09,14,15,18,25.30
2014,09,14,15,19,25.30
2014,09,14,15,20,25.30
2014,09,14,15,21,25.20
2014,09,14,15,22,25.00
2014,09,14,15,23,24.90
2014,09,14,15,24,24.80
2014,09,14,15,25,24.80
2014,09,14,15,26,24.70
2014,09,14,15,27,24.70
2014,09,14,15,28,24.60
2014,09,14,15,29,24.50
2014,09,14,15,30,24.50
2014,09,14,15,31,24.40
2014,09,14,15,32,24.30
2014,09,14,15,33,24.30
2014,09,14,15,34,24.30
2014,09,14,15,35,24.20
2014,09,14,15,36,24.20
2014,09,14,15,37,24.20
2014,09,14,15,38,24.20
2014,09,14,15,39,24.20
2014,09,14,15,40,24.10
2014,09,14,15,41,24.10
2014,09,14,15,42,24.10
2014,09,14,15,43,24.20
2014,09,14,15,44,24.20
2014,09,14,15,45,24.30
2014,09,14,15,46,24.30
2014,09,14,15,47,24.30
2014,09,14,15,48,24.30
2014,09,14,15,49,24.30
2014,09,14,15,50,24.30
2014,09,14,15,51,24.30
2014,09,14,15,52,24.40
2014,09,14,15,53,24.40
2014,09,14,15,54,24.40
2014,09,14,15,55,24.50
2014,09,14,15,56,24.50
2014,09,14,15,57,24.60
2014,09,14,15,58,24.60
2014,09,14,15,59,24.70
2014,09,14,16,00,24.80
2014,09,14,16,01,24.80
2014,09,14,16,02,24.80
2014,09,14,16,03,24.80
2014,09,14,16,04,24.80
2014,09,14,16,05,24.80
2014,09,14,16,06,24.90
2014,09,14,16,07,24.90
2014,09,14,16,08,25.00
2014,09,14,16,09,25.10
2014,09,14,16,10,25.10
2014,09,14,16,11,25.20
2014,09,14,16,12,25.10
2014,09,14,16,13,25.10
2014,09,14,16,14,25.10
2014,09,14,16,15,25.00
2014,09,14,16,16,24.80
2014,09,14,16,17,24.70
2014,09,14,16,18,24.60
2014,09,14,16,19,24.40
2014,09,14,16,20,24.20
2014,09,14,16,21,24.10
2014,09,14,16,22,24.00
2014,09,14,16,23,23.80
2014,09,14,16,24,23.80
2014,09,14,16,25,23.70
2014,09,14,16,26,23.60
2014,09,14,16,27,23.60
2014,09,14,16,28,23.50
2014,09,14,16,29,23.40
2014,09,14,16,30,23.30
2014,09,14,16,31,23.20
2014,09,14,16,32,23.20
2014,09,14,16,33,23.10
2014,09,14,16,34,23.00
2014,09,14,16,35,22.90
2014,09,14,16,36,22.80
2014,09,14,16,37,22.80
2014,09,14,16,38,22.70
2014,09,14,16,39,22.60
2014,09,14,16,40,22.50
2014,09,14,16,41,22.50
2014,09,14,16,42,22.50
2014,09,14,16,43,22.50
2014,09,14,16,44,22.50
2014,09,14,16,45,22.40
2014,09,14,16,46,22.40
2014,09,14,16,47,22.40
2014,09,14,16,48,22.30
2014,09,14,16,49,22.30
2014,09,14,16,50,22.30
2014,09,14,16,51,22.30
2014,09,14,16,52,22.30
2014,09,14,16,53,22.20
2014,09,14,16,54,22.20
2014,09,14,16,55,22.20
2014,09,14,16,56,22.10
2014,09,14,16,57,22.10
2014,09,14,16,58,22.20
2014,09,14,16,59,22.20
2014,09,14,17,00,22.20
2014,09,14,17,01,22.20
2014,09,14,17,02,22.30
2014,09,14,17,03,22.30
2014,09,14,17,04,22.40
2014,09,14,17,05,22.40
2014,09,14,17,06,22.50
2014,09,14,17,07,22.60
2014,09,14,17,08,22.70
2014,09,14,17,09,22.80
2014,09,14,17,10,22.80
2014,09,14,17,11,22.90
2014,09,14,17,12,22.90
2014,09,14,17,13,23.00
2014,09,14,17,14,23.00
2014,09,14,17,15,23.00
2014,09,14,17,16,22.90
2014,09,14,17,17,22.90
2014,09,14,17,18,22.90
2014,09,14,17,19,22.80